sat.trackr.live / text

‹ back to catalog

STARLINK-5355

NORAD 57139 · 2023-090AQ

PAYLOAD ACTIVE UNKNOWN

§ Identity

Operator
Country
US
Launch date
2023-06-23
Launch site
AFETR
Launch vehicle
Mass (kg)
RCS (m²)

Purposes: comms

External: N2YO · Heavens-Above · Gunter

§ Orbital elements

Epoch: 2026-09-20T23:26:53.786688Z

Period
94.27 min
Inclination
43.0023°
Eccentricity
0.0000637
Mean motion
15.27575494 rev/d
Perigee alt
482.6 km
Apogee alt
483.5 km
Semi-major
6,861.2 km
B*
1.0547e-5
RAAN
240.1556°
Arg perigee
280.8393°
Mean anomaly
79.2387°
Rev number
18,022

§ Raw data

STARLINK-53551 57139U 23090AQ  26263.97701142  .00000028  00000+0  10547-4 0  99992 57139  43.0023 240.1556 0000637 280.8393  79.2387 15.27575494180229

JSON: /api/v1/satellites/57139 · /tle

For live sub-satellite position, see the globe view (requires WebGL).

§ Visibility from observer

Set your observer location to see the next 7 days of passes ≥ 10°. The values pass through the URL so the page stays shareable.

No JS? Fill the form by hand. The geolocation button needs JavaScript.